Location: El Mouella
(16.4949°N, 9.1594°W)
Time: 14:25:40
(UTC+00:00)

VEP-3 - Pass Details

Date: 02 June 2020
Orbit: 1042 x 33701 km, 23.7° (Epoch: 02 July)

Event Time Altitude Azimuth Distance (km) Brightness Sun altitude
Rises 22:36:27 0° 268° (W) 4,351 6.3 -41.6°
Reaches altitude 10° 22:39:20 10° 273° (W) 2,984 5.4 -42.0°
Enters shadow 22:41:28 23° 282° (WNW) 2,048 4.4 -42.3°
Exits shadow 22:55:09 - 74° (ENE) 5,375 6.2 -44.1°
Sets 22:58:30 0° 77° (ENE) 6,842 6.7 -44.6°
